Location: Newark
(50.0306°N, 2.3272°E)
Time: 14:12:52
(UTC+00:00)

Vanguard 1 Rocket - Pass Details

Date: 20 December 2019
Orbit: 650 x 4226 km, 34.3° (Epoch: 25 January)

Event Time Altitude Azimuth Distance (km) Brightness Sun altitude
Rises 18:51:57 0° 239° (WSW) 8,468 13.3 -27.8°
Reaches altitude 10° 18:58:26 10° 234° (SW) 7,361 12.7 -28.8°
Maximum altitude 19:20:13 44° 173° (S) 3,995 10.4 -32.3°
Enters shadow 19:25:55 36° 136° (SE) 3,858 10.1 -33.2°
Drops below altitude 10° 19:33:41 10° 107° (ESE) 4,721 - -34.5°
Sets 19:36:46 0° 101° (E) 5,334 - -35.0°
